Simultaneous Nadir Overpasses (SNOs) Predictions

Prediction of SNOs between AQUA and METOP-B Satellite Orbit:

Table of predicted SNOs for the next 14.0 days since TLE Epoch: 11/22/2025
Index Date (AQUA) Time (AQUA) Lat,Lon (AQUA) SZA (AQUA ) Date (METOP-B) Time (METOP-B) Lat,Lon (METOP-B) SZA (METOP-B ) Distance(km) Time Diff (sec)
1 11/23/2025 14:17:40 78.07, -33.12 98.51 11/23/2025 14:16:43 78.09, -33.03 98.53 2.95 57
2 11/23/2025 15:06:57 -78.09, 134.48 81.47 11/23/2025 15:07:23 -78.13, 134.47 81.43 4.01 26
3 11/26/2025 02:15:30 -78.09, -32.61 80.98 11/26/2025 02:15:12 -78.11, -32.57 80.97 1.80 18
4 11/26/2025 03:04:49 78.15, 134.78 99.08 11/26/2025 03:05:53 78.12, 134.79 99.05 4.17 64
5 11/28/2025 13:24:02 -78.09, 160.34 80.54 11/28/2025 13:23:01 -78.09, 160.36 80.55 0.95 61
6 11/28/2025 14:13:20 78.11, -32.07 99.48 11/28/2025 14:13:41 78.13, -32.07 99.51 2.40 21
7 12/01/2025 01:21:51 78.11, 160.90 99.88 12/01/2025 01:21:30 78.10, 160.81 99.88 2.03 21
8 12/01/2025 02:11:09 -78.16, -31.70 80.07 12/01/2025 02:12:10 -78.14, -31.67 80.09 3.02 61
9 12/03/2025 12:30:21 78.10, -6.10 100.23 12/03/2025 12:29:18 78.11, -6.12 100.24 1.45 63
10 12/03/2025 13:19:39 -78.15, 161.30 79.72 12/03/2025 13:19:58 -78.14, 161.40 79.72 2.49 19
11 12/06/2025 00:28:08 -78.14, -5.66 79.42 12/06/2025 00:27:46 -78.14, -5.56 79.41 2.51 22



Historial Predications of SNOs between AQUA and METOP-B
